Time,TemperatureF,DewpointF,PressureIn,WindDirection,WindDirectionDegrees,WindSpeedMPH,WindSpeedGustMPH,Humidity,HourlyPrecipIn,Conditions,Clouds,dailyrainin,SolarRadiationWatts/m^2,SoftwareType,DateUTC
2013-02-05 00:00:00,22.4,14.1,30.23,ESE,112,3.0,5.0,70,0.00,,,-99.99,0,WeatherLink 5.7,2013-02-05 07:00:00,
2013-02-05 00:10:00,21.9,13.9,30.25,ESE,112,2.0,5.0,71,0.00,,,-99.99,0,WeatherLink 5.7,2013-02-05 07:10:00,
2013-02-05 00:15:00,21.5,13.2,30.25,ESE,112,1.0,2.0,70,0.00,,,-99.99,0,WeatherLink 5.7,2013-02-05 07:15:00,
2013-02-05 00:20:00,20.8,12.9,30.25,ESE,112,1.0,3.0,71,0.00,,,-99.99,0,WeatherLink 5.7,2013-02-05 07:20:00,
2013-02-05 00:25:00,20.5,13.2,30.25,East,90,3.0,4.0,73,0.00,,,-99.99,0,WeatherLink 5.7,2013-02-05 07:25:00,
2013-02-05 00:35:00,20.8,13.8,30.25,East,90,2.0,5.0,74,0.00,,,-99.99,0,WeatherLink 5.7,2013-02-05 07:35:00,
2013-02-05 00:40:00,20.7,13.7,30.25,East,90,1.0,4.0,74,0.00,,,-99.99,0,WeatherLink 5.7,2013-02-05 07:40:00,
2013-02-05 00:45:00,20.3,13.3,30.25,East,90,0.0,2.0,74,0.00,,,-99.99,0,WeatherLink 5.7,2013-02-05 07:45:00,
2013-02-05 00:55:00,19.9,13.3,30.25,East,90,0.0,2.0,75,0.00,,,-99.99,0,WeatherLink 5.7,2013-02-05 07:55:00,
2013-02-05 01:00:00,19.6,13.0,30.25,East,90,0.0,3.0,75,0.00,,,-99.99,0,WeatherLink 5.7,2013-02-05 08:00:00,
2013-02-05 01:10:00,19.1,12.5,30.26,East,90,1.0,3.0,75,0.00,,,-99.99,0,WeatherLink 5.7,2013-02-05 08:10:00,
2013-02-05 01:15:00,18.8,12.5,30.26,East,90,2.0,3.0,76,0.00,,,-99.99,0,WeatherLink 5.7,2013-02-05 08:15:00,
2013-02-05 01:20:00,18.5,12.2,30.25,East,90,2.0,3.0,76,0.00,,,-99.99,0,WeatherLink 5.7,2013-02-05 08:20:00,
2013-02-05 01:30:00,18.3,12.0,30.25,East,90,2.0,3.0,76,0.00,,,-99.99,0,WeatherLink 5.7,2013-02-05 08:30:00,
2013-02-05 01:35:00,18.3,12.3,30.26,East,90,2.0,4.0,77,0.00,,,-99.99,0,WeatherLink 5.7,2013-02-05 08:35:00,
2013-02-05 01:40:00,18.1,12.1,30.26,East,90,2.0,3.0,77,0.00,,,-99.99,0,WeatherLink 5.7,2013-02-05 08:40:00,
2013-02-05 01:45:00,18.3,12.3,30.26,East,90,2.0,4.0,77,0.00,,,-99.99,0,WeatherLink 5.7,2013-02-05 08:45:00,
2013-02-05 01:50:00,18.3,12.3,30.27,East,90,2.0,3.0,77,0.00,,,-99.99,0,WeatherLink 5.7,2013-02-05 08:50:00,
2013-02-05 02:00:00,18.1,12.1,30.27,East,90,0.0,2.0,77,0.00,,,-99.99,0,WeatherLink 5.7,2013-02-05 09:00:00,
2013-02-05 02:05:00,17.8,11.8,30.27,ESE,112,2.0,3.0,77,0.00,,,-99.99,0,WeatherLink 5.7,2013-02-05 09:05:00,
2013-02-05 02:15:00,18.0,12.0,30.27,East,90,2.0,4.0,77,0.00,,,-99.99,0,WeatherLink 5.7,2013-02-05 09:15:00,
2013-02-05 02:20:00,17.7,11.7,30.24,ESE,112,2.0,3.0,77,0.00,,,-99.99,0,WeatherLink 5.7,2013-02-05 09:20:00,
2013-02-05 02:25:00,17.5,11.5,30.24,ESE,112,2.0,3.0,77,0.00,,,-99.99,0,WeatherLink 5.7,2013-02-05 09:25:00,
2013-02-05 02:30:00,17.5,11.5,30.24,ESE,112,3.0,5.0,77,0.00,,,-99.99,0,WeatherLink 5.7,2013-02-05 09:30:00,
2013-02-05 02:35:00,17.5,11.5,30.24,East,90,3.0,6.0,77,0.00,,,-99.99,0,WeatherLink 5.7,2013-02-05 09:35:00,
2013-02-05 02:45:00,17.0,11.0,30.24,East,90,3.0,4.0,77,0.00,,,-99.99,0,WeatherLink 5.7,2013-02-05 09:45:00,
2013-02-05 02:50:00,17.0,11.3,30.25,East,90,2.0,4.0,78,0.00,,,-99.99,0,WeatherLink 5.7,2013-02-05 09:50:00,
2013-02-05 03:00:00,17.0,11.3,30.25,East,90,3.0,4.0,78,0.00,,,-99.99,0,WeatherLink 5.7,2013-02-05 10:00:00,
2013-02-05 03:05:00,16.7,10.7,30.25,ESE,112,3.0,4.0,77,0.00,,,-99.99,0,WeatherLink 5.7,2013-02-05 10:05:00,
2013-02-05 03:15:00,16.2,10.3,30.25,ESE,112,2.0,4.0,77,0.00,,,-99.99,0,WeatherLink 5.7,2013-02-05 10:15:00,
2013-02-05 03:20:00,16.2,10.5,30.25,ESE,112,2.0,4.0,78,0.00,,,-99.99,0,WeatherLink 5.7,2013-02-05 10:20:00,
2013-02-05 03:30:00,16.2,10.3,30.25,ESE,112,2.0,4.0,77,0.00,,,-99.99,0,WeatherLink 5.7,2013-02-05 10:30:00,
2013-02-05 03:40:00,15.8,10.2,30.25,ESE,112,3.0,5.0,78,0.00,,,-99.99,0,WeatherLink 5.7,2013-02-05 10:40:00,
2013-02-05 03:50:00,15.8,10.2,30.25,East,90,3.0,6.0,78,0.00,,,-99.99,0,WeatherLink 5.7,2013-02-05 10:50:00,
2013-02-05 04:00:00,15.4,10.1,30.25,ESE,112,2.0,4.0,79,0.00,,,-99.99,0,WeatherLink 5.7,2013-02-05 11:00:00,
2013-02-05 04:10:00,15.3,10.0,30.27,East,90,3.0,4.0,79,0.00,,,-99.99,0,WeatherLink 5.7,2013-02-05 11:10:00,
2013-02-05 04:20:00,15.4,10.1,30.28,East,90,3.0,4.0,79,0.00,,,-99.99,0,WeatherLink 5.7,2013-02-05 11:20:00,
2013-02-05 04:25:00,15.3,10.0,30.28,East,90,2.0,4.0,79,0.00,,,-99.99,0,WeatherLink 5.7,2013-02-05 11:25:00,
2013-02-05 04:30:00,15.1,9.8,30.28,East,90,0.0,2.0,79,0.00,,,-99.99,0,WeatherLink 5.7,2013-02-05 11:30:00,
2013-02-05 04:40:00,14.8,9.5,30.29,East,90,2.0,4.0,79,0.00,,,-99.99,0,WeatherLink 5.7,2013-02-05 11:40:00,
2013-02-05 04:50:00,14.6,9.3,30.29,East,90,2.0,4.0,79,0.00,,,-99.99,0,WeatherLink 5.7,2013-02-05 11:50:00,
2013-02-05 04:55:00,14.5,9.2,30.29,East,90,2.0,3.0,79,0.00,,,-99.99,0,WeatherLink 5.7,2013-02-05 11:55:00,
2013-02-05 05:00:00,14.5,9.2,30.29,East,90,2.0,4.0,79,0.00,,,-99.99,0,WeatherLink 5.7,2013-02-05 12:00:00,
2013-02-05 05:10:00,14.3,9.0,30.30,East,90,1.0,2.0,79,0.00,,,-99.99,0,WeatherLink 5.7,2013-02-05 12:10:00,
2013-02-05 05:15:00,14.0,8.7,30.30,East,90,2.0,3.0,79,0.00,,,-99.99,0,WeatherLink 5.7,2013-02-05 12:15:00,
2013-02-05 05:25:00,14.1,8.8,30.29,East,90,2.0,3.0,79,0.00,,,-99.99,0,WeatherLink 5.7,2013-02-05 12:25:00,
2013-02-05 05:30:00,14.0,8.7,30.29,East,90,2.0,3.0,79,0.00,,,-99.99,0,WeatherLink 5.7,2013-02-05 12:30:00,
2013-02-05 05:40:00,14.3,9.0,30.30,East,90,3.0,5.0,79,0.00,,,-99.99,0,WeatherLink 5.7,2013-02-05 12:40:00,
2013-02-05 05:45:00,14.0,8.7,30.30,East,90,3.0,6.0,79,0.00,,,-99.99,0,WeatherLink 5.7,2013-02-05 12:45:00,
2013-02-05 05:55:00,13.8,8.5,30.31,East,90,3.0,6.0,79,0.00,,,-99.99,0,WeatherLink 5.7,2013-02-05 12:55:00,
2013-02-05 06:00:00,13.7,8.4,30.31,ESE,112,2.0,4.0,79,0.00,,,-99.99,0,WeatherLink 5.7,2013-02-05 13:00:00,
2013-02-05 06:10:00,13.5,8.2,30.31,East,90,2.0,4.0,79,0.00,,,-99.99,0,WeatherLink 5.7,2013-02-05 13:10:00,
2013-02-05 06:15:00,13.3,8.0,30.31,East,90,1.0,4.0,79,0.00,,,-99.99,0,WeatherLink 5.7,2013-02-05 13:15:00,
2013-02-05 06:20:00,13.3,8.0,30.34,ESE,112,2.0,4.0,79,0.00,,,-99.99,0,WeatherLink 5.7,2013-02-05 13:20:00,
2013-02-05 06:30:00,13.5,8.2,30.34,East,90,2.0,3.0,79,0.00,,,-99.99,0,WeatherLink 5.7,2013-02-05 13:30:00,
2013-02-05 06:40:00,13.3,8.0,30.33,East,90,1.0,3.0,79,0.00,,,-99.99,0,WeatherLink 5.7,2013-02-05 13:40:00,
2013-02-05 06:45:00,13.2,7.9,30.33,East,90,1.0,3.0,79,0.00,,,-99.99,0,WeatherLink 5.7,2013-02-05 13:45:00,
2013-02-05 06:55:00,13.2,7.9,30.34,East,90,1.0,3.0,79,0.00,,,-99.99,0,WeatherLink 5.7,2013-02-05 13:55:00,
2013-02-05 07:00:00,13.2,7.9,30.34,East,90,2.0,4.0,79,0.00,,,-99.99,0,WeatherLink 5.7,2013-02-05 14:00:00,
2013-02-05 07:10:00,13.2,7.9,30.35,East,90,2.0,4.0,79,0.00,,,-99.99,0,WeatherLink 5.7,2013-02-05 14:10:00,
2013-02-05 07:15:00,13.2,7.9,30.35,East,90,2.0,5.0,79,0.00,,,-99.99,0,WeatherLink 5.7,2013-02-05 14:15:00,
2013-02-05 07:25:00,13.0,7.7,30.40,East,90,3.0,4.0,79,0.00,,,-99.99,6,WeatherLink 5.7,2013-02-05 14:25:00,
2013-02-05 07:30:00,13.0,7.7,30.40,East,90,3.0,5.0,79,0.00,,,-99.99,7,WeatherLink 5.7,2013-02-05 14:30:00,
2013-02-05 07:35:00,13.0,7.7,30.41,East,90,2.0,5.0,79,0.00,,,-99.99,10,WeatherLink 5.7,2013-02-05 14:35:00,
2013-02-05 07:45:00,13.2,7.9,30.41,East,90,1.0,3.0,79,0.00,,,-99.99,12,WeatherLink 5.7,2013-02-05 14:45:00,
2013-02-05 07:55:00,13.0,7.4,30.41,East,90,2.0,4.0,78,0.00,,,-99.99,25,WeatherLink 5.7,2013-02-05 14:55:00,
2013-02-05 08:00:00,13.2,7.9,30.41,SE,135,1.0,4.0,79,0.00,,,-99.99,45,WeatherLink 5.7,2013-02-05 15:00:00,
2013-02-05 08:10:00,14.1,8.5,30.39,ESE,112,3.0,6.0,78,0.00,,,-99.99,100,WeatherLink 5.7,2013-02-05 15:10:00,
2013-02-05 08:15:00,14.3,8.4,30.39,East,90,4.0,6.0,77,0.00,,,-99.99,101,WeatherLink 5.7,2013-02-05 15:15:00,
2013-02-05 08:25:00,14.6,8.4,30.40,East,90,5.0,9.0,76,0.00,,,-99.99,142,WeatherLink 5.7,2013-02-05 15:25:00,
2013-02-05 08:35:00,15.8,9.0,30.39,ESE,112,3.0,5.0,74,0.00,,,-99.99,141,WeatherLink 5.7,2013-02-05 15:35:00,
2013-02-05 08:45:00,16.9,9.4,30.39,ESE,112,3.0,5.0,72,0.00,,,-99.99,234,WeatherLink 5.7,2013-02-05 15:45:00,
2013-02-05 08:50:00,17.2,9.4,30.38,East,90,3.0,6.0,71,0.00,,,-99.99,279,WeatherLink 5.7,2013-02-05 15:50:00,
2013-02-05 09:00:00,18.3,10.1,30.38,ESE,112,3.0,4.0,70,0.00,,,-99.99,310,WeatherLink 5.7,2013-02-05 16:00:00,
2013-02-05 09:10:00,19.1,10.6,30.36,East,90,3.0,5.0,69,0.00,,,-99.99,341,WeatherLink 5.7,2013-02-05 16:10:00,
2013-02-05 09:15:00,19.9,10.7,30.36,ESE,112,2.0,4.0,67,0.00,,,-99.99,353,WeatherLink 5.7,2013-02-05 16:15:00,
2013-02-05 09:25:00,20.8,11.2,30.36,ESE,112,2.0,5.0,66,0.00,,,-99.99,384,WeatherLink 5.7,2013-02-05 16:25:00,
2013-02-05 09:30:00,20.7,11.1,30.36,ESE,112,3.0,6.0,66,0.00,,,-99.99,398,WeatherLink 5.7,2013-02-05 16:30:00,
2013-02-05 09:35:00,21.1,11.5,30.34,ESE,112,3.0,5.0,66,0.00,,,-99.99,412,WeatherLink 5.7,2013-02-05 16:35:00,
2013-02-05 09:45:00,22.7,12.0,30.34,SE,135,1.0,4.0,63,0.00,,,-99.99,437,WeatherLink 5.7,2013-02-05 16:45:00,
2013-02-05 09:50:00,23.2,12.1,30.32,SE,135,2.0,4.0,62,0.00,,,-99.99,452,WeatherLink 5.7,2013-02-05 16:50:00,
2013-02-05 10:00:00,24.5,13.0,30.32,ESE,112,1.0,4.0,61,0.00,,,-99.99,478,WeatherLink 5.7,2013-02-05 17:00:00,
2013-02-05 10:10:00,25.4,13.1,30.30,ESE,112,1.0,4.0,59,0.00,,,-99.99,503,WeatherLink 5.7,2013-02-05 17:10:00,
2013-02-05 10:15:00,26.1,12.9,30.30,ESE,112,1.0,4.0,57,0.00,,,-99.99,514,WeatherLink 5.7,2013-02-05 17:15:00,
2013-02-05 10:25:00,27.0,12.5,30.29,East,90,2.0,6.0,54,0.00,,,-99.99,535,WeatherLink 5.7,2013-02-05 17:25:00,
2013-02-05 10:30:00,27.8,13.3,30.28,ESE,112,1.0,4.0,54,0.00,,,-99.99,556,WeatherLink 5.7,2013-02-05 17:30:00,
2013-02-05 10:40:00,28.8,13.4,30.28,ESE,112,1.0,3.0,52,0.00,,,-99.99,576,WeatherLink 5.7,2013-02-05 17:40:00,
2013-02-05 10:45:00,29.1,13.6,30.26,SE,135,1.0,5.0,52,0.00,,,-99.99,585,WeatherLink 5.7,2013-02-05 17:45:00,
2013-02-05 10:50:00,29.8,13.9,30.26,East,90,1.0,4.0,51,0.00,,,-99.99,593,WeatherLink 5.7,2013-02-05 17:50:00,
2013-02-05 10:55:00,30.3,13.4,30.26,ESE,112,1.0,4.0,49,0.00,,,-99.99,602,WeatherLink 5.7,2013-02-05 17:55:00,
2013-02-05 11:00:00,31.2,12.8,30.24,East,90,1.0,6.0,46,0.00,,,-99.99,610,WeatherLink 5.7,2013-02-05 18:00:00,
2013-02-05 11:05:00,31.8,13.3,30.24,ESE,112,1.0,5.0,46,0.00,,,-99.99,619,WeatherLink 5.7,2013-02-05 18:05:00,
2013-02-05 11:10:00,31.6,12.7,30.24,East,90,2.0,5.0,45,0.00,,,-99.99,619,WeatherLink 5.7,2013-02-05 18:10:00,
2013-02-05 11:15:00,32.2,13.7,30.24,ESE,112,1.0,4.0,46,0.00,,,-99.99,529,WeatherLink 5.7,2013-02-05 18:15:00,
2013-02-05 11:20:00,32.4,13.9,30.24,ESE,112,1.0,4.0,46,0.00,,,-99.99,481,WeatherLink 5.7,2013-02-05 18:20:00,
2013-02-05 11:25:00,32.8,13.8,30.24,East,90,1.0,4.0,45,0.00,,,-99.99,627,WeatherLink 5.7,2013-02-05 18:25:00,
2013-02-05 11:30:00,33.2,13.6,30.22,ESE,112,1.0,4.0,44,0.00,,,-99.99,649,WeatherLink 5.7,2013-02-05 18:30:00,
2013-02-05 11:35:00,33.5,13.4,30.22,ESE,112,1.0,6.0,43,0.00,,,-99.99,652,WeatherLink 5.7,2013-02-05 18:35:00,
2013-02-05 11:40:00,33.7,13.5,30.22,East,90,2.0,4.0,43,0.00,,,-99.99,656,WeatherLink 5.7,2013-02-05 18:40:00,
2013-02-05 11:45:00,33.8,13.6,30.20,ESE,112,2.0,5.0,43,0.00,,,-99.99,652,WeatherLink 5.7,2013-02-05 18:45:00,
2013-02-05 11:50:00,34.1,13.9,30.20,ESE,112,1.0,3.0,43,0.00,,,-99.99,479,WeatherLink 5.7,2013-02-05 18:50:00,
2013-02-05 11:55:00,34.4,13.1,30.20,East,90,2.0,4.0,41,0.00,,,-99.99,317,WeatherLink 5.7,2013-02-05 18:55:00,
2013-02-05 12:00:00,34.9,14.1,30.19,ESE,112,1.0,4.0,42,0.00,,,-99.99,239,WeatherLink 5.7,2013-02-05 19:00:00,
2013-02-05 12:05:00,35.0,13.6,30.19,East,90,1.0,3.0,41,0.00,,,-99.99,327,WeatherLink 5.7,2013-02-05 19:05:00,
2013-02-05 12:15:00,35.7,14.8,30.19,East,90,1.0,3.0,42,0.00,,,-99.99,363,WeatherLink 5.7,2013-02-05 19:15:00,
2013-02-05 12:25:00,36.0,14.5,30.19,ESE,112,0.0,3.0,41,0.00,,,-99.99,359,WeatherLink 5.7,2013-02-05 19:25:00,
2013-02-05 12:30:00,36.3,13.7,30.19,ESE,112,0.0,3.0,39,0.00,,,-99.99,404,WeatherLink 5.7,2013-02-05 19:30:00,
2013-02-05 12:35:00,36.7,13.4,30.17,ESE,112,1.0,2.0,38,0.00,,,-99.99,551,WeatherLink 5.7,2013-02-05 19:35:00,
2013-02-05 12:45:00,37.2,12.7,30.17,East,90,0.0,3.0,36,0.00,,,-99.99,525,WeatherLink 5.7,2013-02-05 19:45:00,
2013-02-05 12:50:00,37.6,13.6,30.15,East,90,0.0,1.0,37,0.00,,,-99.99,434,WeatherLink 5.7,2013-02-05 19:50:00,
2013-02-05 12:55:00,38.2,13.6,30.15,East,90,0.0,1.0,36,0.00,,,-99.99,496,WeatherLink 5.7,2013-02-05 19:55:00,
2013-02-05 13:00:00,38.3,13.0,30.15,East,90,0.0,2.0,35,0.00,,,-99.99,641,WeatherLink 5.7,2013-02-05 20:00:00,
2013-02-05 13:10:00,39.3,14.5,30.13,SSE,157,1.0,3.0,36,0.00,,,-99.99,637,WeatherLink 5.7,2013-02-05 20:10:00,
2013-02-05 13:15:00,40.9,14.6,30.13,SSE,157,0.0,1.0,34,0.00,,,-99.99,633,WeatherLink 5.7,2013-02-05 20:15:00,
2013-02-05 13:20:00,41.9,15.5,30.10,SSE,157,0.0,1.0,34,0.00,,,-99.99,606,WeatherLink 5.7,2013-02-05 20:20:00,
2013-02-05 13:30:00,42.5,16.1,30.10,SSW,202,0.0,2.0,34,0.00,,,-99.99,649,WeatherLink 5.7,2013-02-05 20:30:00,
2013-02-05 13:35:00,42.9,15.0,30.09,NNW,337,0.0,3.0,32,0.00,,,-99.99,647,WeatherLink 5.7,2013-02-05 20:35:00,
2013-02-05 13:40:00,43.6,15.6,30.09,WNW,292,0.0,2.0,32,0.00,,,-99.99,647,WeatherLink 5.7,2013-02-05 20:40:00,
2013-02-05 13:45:00,43.6,15.6,30.09,WNW,292,0.0,3.0,32,0.00,,,-99.99,639,WeatherLink 5.7,2013-02-05 20:45:00,
2013-02-05 13:55:00,44.8,16.0,30.07,WNW,292,0.0,1.0,31,0.00,,,-99.99,616,WeatherLink 5.7,2013-02-05 20:55:00,
2013-02-05 14:00:00,45.1,16.2,30.07,WNW,292,0.0,3.0,31,0.00,,,-99.99,635,WeatherLink 5.7,2013-02-05 21:00:00,
2013-02-05 14:10:00,44.5,17.8,30.06,WNW,292,0.0,3.0,34,0.00,,,-99.99,580,WeatherLink 5.7,2013-02-05 21:10:00,
2013-02-05 14:15:00,44.2,17.6,30.06,NW,315,1.0,5.0,34,0.00,,,-99.99,557,WeatherLink 5.7,2013-02-05 21:15:00,
2013-02-05 14:20:00,44.3,19.6,30.06,WSW,247,1.0,4.0,37,0.00,,,-99.99,533,WeatherLink 5.7,2013-02-05 21:20:00,
2013-02-05 14:25:00,44.6,19.3,30.06,WSW,247,1.0,4.0,36,0.00,,,-99.99,543,WeatherLink 5.7,2013-02-05 21:25:00,
2013-02-05 14:30:00,44.6,19.9,30.06,WSW,247,1.0,4.0,37,0.00,,,-99.99,533,WeatherLink 5.7,2013-02-05 21:30:00,
2013-02-05 14:40:00,44.6,17.9,30.04,NNW,337,2.0,5.0,34,0.00,,,-99.99,484,WeatherLink 5.7,2013-02-05 21:40:00,
2013-02-05 14:45:00,44.8,18.8,30.04,NNW,337,1.0,4.0,35,0.00,,,-99.99,506,WeatherLink 5.7,2013-02-05 21:45:00,
2013-02-05 14:50:00,44.9,18.2,30.03,West,270,1.0,3.0,34,0.00,,,-99.99,450,WeatherLink 5.7,2013-02-05 21:50:00,
2013-02-05 15:00:00,44.8,18.1,30.03,NW,315,1.0,5.0,34,0.00,,,-99.99,463,WeatherLink 5.7,2013-02-05 22:00:00,
2013-02-05 15:10:00,45.7,18.9,30.03,West,270,0.0,4.0,34,0.00,,,-99.99,471,WeatherLink 5.7,2013-02-05 22:10:00,
2013-02-05 15:15:00,46.1,19.9,30.03,NNW,337,0.0,3.0,35,0.00,,,-99.99,447,WeatherLink 5.7,2013-02-05 22:15:00,
2013-02-05 15:20:00,46.1,19.9,30.04,West,270,0.0,3.0,35,0.00,,,-99.99,429,WeatherLink 5.7,2013-02-05 22:20:00,
2013-02-05 15:30:00,45.8,19.0,30.04,West,270,0.0,2.0,34,0.00,,,-99.99,400,WeatherLink 5.7,2013-02-05 22:30:00,
2013-02-05 15:35:00,46.1,19.2,30.04,West,270,0.0,3.0,34,0.00,,,-99.99,385,WeatherLink 5.7,2013-02-05 22:35:00,
2013-02-05 15:40:00,46.1,19.2,30.04,NW,315,0.0,3.0,34,0.00,,,-99.99,373,WeatherLink 5.7,2013-02-05 22:40:00,
2013-02-05 15:45:00,45.8,19.7,30.04,NW,315,0.0,2.0,35,0.00,,,-99.99,357,WeatherLink 5.7,2013-02-05 22:45:00,
2013-02-05 15:55:00,46.2,20.7,30.02,NW,315,0.0,2.0,36,0.00,,,-99.99,327,WeatherLink 5.7,2013-02-05 22:55:00,
2013-02-05 16:00:00,46.1,19.9,30.02,WNW,292,0.0,1.0,35,0.00,,,-99.99,314,WeatherLink 5.7,2013-02-05 23:00:00,
2013-02-05 16:10:00,45.9,20.4,30.02,WNW,292,0.0,1.0,36,0.00,,,-99.99,267,WeatherLink 5.7,2013-02-05 23:10:00,
2013-02-05 16:15:00,45.7,20.9,30.02,WNW,292,0.0,1.0,37,0.00,,,-99.99,263,WeatherLink 5.7,2013-02-05 23:15:00,
2013-02-05 16:20:00,45.4,21.9,30.03,WNW,292,0.0,1.0,39,0.00,,,-99.99,252,WeatherLink 5.7,2013-02-05 23:20:00,
2013-02-05 16:30:00,43.8,22.7,30.03,WNW,292,0.0,1.0,43,0.00,,,-99.99,163,WeatherLink 5.7,2013-02-05 23:30:00,
2013-02-05 16:35:00,43.3,22.8,30.03,WNW,292,0.0,1.0,44,0.00,,,-99.99,110,WeatherLink 5.7,2013-02-05 23:35:00,
2013-02-05 16:45:00,42.3,22.4,30.03,North,-999,0.0,0.0,45,0.00,,,-99.99,20,WeatherLink 5.7,2013-02-05 23:45:00,
2013-02-05 16:50:00,41.6,22.8,30.04,North,-999,0.0,0.0,47,0.00,,,-99.99,18,WeatherLink 5.7,2013-02-05 23:50:00,
2013-02-05 16:55:00,40.8,23.1,30.04,North,-999,0.0,0.0,49,0.00,,,-99.99,18,WeatherLink 5.7,2013-02-05 23:55:00,
2013-02-05 17:00:00,40.2,23.0,30.04,North,-999,0.0,0.0,50,0.00,,,-99.99,16,WeatherLink 5.7,2013-02-06 00:00:00,
2013-02-05 17:10:00,39.0,22.4,30.06,North,-999,0.0,0.0,51,0.00,,,-99.99,15,WeatherLink 5.7,2013-02-06 00:10:00,
2013-02-05 17:15:00,38.5,22.4,30.06,North,-999,0.0,0.0,52,0.00,,,-99.99,14,WeatherLink 5.7,2013-02-06 00:15:00,
2013-02-05 17:25:00,37.6,22.4,30.08,North,-999,0.0,0.0,54,0.00,,,-99.99,11,WeatherLink 5.7,2013-02-06 00:25:00,
2013-02-05 17:30:00,37.3,22.6,30.08,North,-999,0.0,0.0,55,0.00,,,-99.99,8,WeatherLink 5.7,2013-02-06 00:30:00,
2013-02-05 17:40:00,36.5,22.3,30.09,North,-999,0.0,0.0,56,0.00,,,-99.99,0,WeatherLink 5.7,2013-02-06 00:40:00,
2013-02-05 17:50:00,35.9,22.1,30.09,North,-999,0.0,0.0,57,0.00,,,-99.99,0,WeatherLink 5.7,2013-02-06 00:50:00,
2013-02-05 18:00:00,35.3,22.4,30.09,North,-999,0.0,0.0,59,0.00,,,-99.99,0,WeatherLink 5.7,2013-02-06 01:00:00,
2013-02-05 18:10:00,34.9,22.4,30.10,North,-999,0.0,0.0,60,0.00,,,-99.99,0,WeatherLink 5.7,2013-02-06 01:10:00,
2013-02-05 18:15:00,34.9,22.4,30.10,North,-999,0.0,0.0,60,0.00,,,-99.99,0,WeatherLink 5.7,2013-02-06 01:15:00,
2013-02-05 18:20:00,34.7,22.2,30.11,North,-999,0.0,0.0,60,0.00,,,-99.99,0,WeatherLink 5.7,2013-02-06 01:20:00,
2013-02-05 18:25:00,34.6,22.1,30.11,North,-999,0.0,0.0,60,0.00,,,-99.99,0,WeatherLink 5.7,2013-02-06 01:25:00,
2013-02-05 18:35:00,33.7,21.3,30.12,North,-999,0.0,0.0,60,0.00,,,-99.99,0,WeatherLink 5.7,2013-02-06 01:35:00,
2013-02-05 18:40:00,33.4,21.8,30.12,North,-999,0.0,0.0,62,0.00,,,-99.99,0,WeatherLink 5.7,2013-02-06 01:40:00,
2013-02-05 18:50:00,32.8,21.2,30.13,North,-999,0.0,0.0,62,0.00,,,-99.99,0,WeatherLink 5.7,2013-02-06 01:50:00,
2013-02-05 18:55:00,33.1,21.5,30.13,WNW,292,0.0,1.0,62,0.00,,,-99.99,0,WeatherLink 5.7,2013-02-06 01:55:00,
2013-02-05 19:00:00,33.2,21.2,30.13,North,-999,0.0,0.0,61,0.00,,,-99.99,0,WeatherLink 5.7,2013-02-06 02:00:00,
2013-02-05 19:10:00,32.2,20.6,30.13,WNW,292,0.0,1.0,62,0.00,,,-99.99,0,WeatherLink 5.7,2013-02-06 02:10:00,
2013-02-05 19:15:00,32.1,20.5,30.13,WNW,292,1.0,2.0,62,0.00,,,-99.99,0,WeatherLink 5.7,2013-02-06 02:15:00,
2013-02-05 19:25:00,31.9,20.3,30.14,North,-999,0.0,0.0,62,0.00,,,-99.99,0,WeatherLink 5.7,2013-02-06 02:25:00,
2013-02-05 19:30:00,31.5,20.3,30.14,ESE,112,0.0,1.0,63,0.00,,,-99.99,0,WeatherLink 5.7,2013-02-06 02:30:00,
2013-02-05 19:35:00,31.2,20.4,30.15,North,-999,0.0,0.0,64,0.00,,,-99.99,0,WeatherLink 5.7,2013-02-06 02:35:00,
2013-02-05 19:40:00,31.0,20.2,30.15,ESE,112,1.0,3.0,64,0.00,,,-99.99,0,WeatherLink 5.7,2013-02-06 02:40:00,
2013-02-05 19:50:00,30.6,20.2,30.15,ESE,112,0.0,3.0,65,0.00,,,-99.99,0,WeatherLink 5.7,2013-02-06 02:50:00,
2013-02-05 20:00:00,30.3,20.3,30.15,ESE,112,1.0,3.0,66,0.00,,,-99.99,0,WeatherLink 5.7,2013-02-06 03:00:00,
2013-02-05 20:10:00,29.8,19.8,30.15,ESE,112,3.0,4.0,66,0.00,,,-99.99,0,WeatherLink 5.7,2013-02-06 03:10:00,
2013-02-05 20:20:00,29.4,19.8,30.12,East,90,3.0,4.0,67,0.00,,,-99.99,0,WeatherLink 5.7,2013-02-06 03:20:00,
2013-02-05 20:30:00,29.0,19.8,30.12,East,90,2.0,4.0,68,0.00,,,-99.99,0,WeatherLink 5.7,2013-02-06 03:30:00,
2013-02-05 20:35:00,28.8,19.6,30.12,East,90,2.0,3.0,68,0.00,,,-99.99,0,WeatherLink 5.7,2013-02-06 03:35:00,
2013-02-05 20:45:00,28.5,19.6,30.12,ESE,112,2.0,4.0,69,0.00,,,-99.99,0,WeatherLink 5.7,2013-02-06 03:45:00,
2013-02-05 20:50:00,28.1,19.2,30.14,ESE,112,1.0,4.0,69,0.00,,,-99.99,0,WeatherLink 5.7,2013-02-06 03:50:00,
2013-02-05 20:55:00,27.8,19.3,30.14,ESE,112,1.0,3.0,70,0.00,,,-99.99,0,WeatherLink 5.7,2013-02-06 03:55:00,
2013-02-05 21:00:00,27.9,19.4,30.14,ESE,112,1.0,3.0,70,0.00,,,-99.99,0,WeatherLink 5.7,2013-02-06 04:00:00,
2013-02-05 21:10:00,28.2,19.3,30.14,East,90,3.0,5.0,69,0.00,,,-99.99,0,WeatherLink 5.7,2013-02-06 04:10:00,
2013-02-05 21:20:00,27.8,18.9,30.10,East,90,3.0,4.0,69,0.00,,,-99.99,0,WeatherLink 5.7,2013-02-06 04:20:00,
2013-02-05 21:25:00,27.8,19.3,30.10,East,90,1.0,3.0,70,0.00,,,-99.99,0,WeatherLink 5.7,2013-02-06 04:25:00,
2013-02-05 21:35:00,27.5,19.0,30.10,North,-999,0.0,0.0,70,0.00,,,-99.99,0,WeatherLink 5.7,2013-02-06 04:35:00,
2013-02-05 21:40:00,27.5,19.0,30.10,North,-999,0.0,0.0,70,0.00,,,-99.99,0,WeatherLink 5.7,2013-02-06 04:40:00,
2013-02-05 21:50:00,27.2,19.0,30.10,North,-999,0.0,0.0,71,0.00,,,-99.99,0,WeatherLink 5.7,2013-02-06 04:50:00,
2013-02-05 21:55:00,27.2,19.0,30.10,North,-999,0.0,0.0,71,0.00,,,-99.99,0,WeatherLink 5.7,2013-02-06 04:55:00,
2013-02-05 22:00:00,27.0,19.2,30.10,North,-999,0.0,0.0,72,0.00,,,-99.99,0,WeatherLink 5.7,2013-02-06 05:00:00,
2013-02-05 22:05:00,27.0,19.2,30.10,North,-999,0.0,0.0,72,0.00,,,-99.99,0,WeatherLink 5.7,2013-02-06 05:05:00,
2013-02-05 22:10:00,26.9,19.1,30.10,East,90,0.0,1.0,72,0.00,,,-99.99,0,WeatherLink 5.7,2013-02-06 05:10:00,
2013-02-05 22:20:00,26.7,19.2,30.06,East,90,0.0,2.0,73,0.00,,,-99.99,0,WeatherLink 5.7,2013-02-06 05:20:00,
2013-02-05 22:25:00,26.3,18.8,30.06,East,90,1.0,2.0,73,0.00,,,-99.99,0,WeatherLink 5.7,2013-02-06 05:25:00,
2013-02-05 22:30:00,26.1,18.6,30.06,East,90,0.0,2.0,73,0.00,,,-99.99,0,WeatherLink 5.7,2013-02-06 05:30:00,
2013-02-05 22:40:00,25.7,18.6,30.07,East,90,1.0,3.0,74,0.00,,,-99.99,0,WeatherLink 5.7,2013-02-06 05:40:00,
2013-02-05 22:45:00,25.7,18.6,30.07,East,90,2.0,4.0,74,0.00,,,-99.99,0,WeatherLink 5.7,2013-02-06 05:45:00,
2013-02-05 22:55:00,25.5,18.7,30.07,East,90,0.0,1.0,75,0.00,,,-99.99,0,WeatherLink 5.7,2013-02-06 05:55:00,
2013-02-05 23:00:00,25.4,18.3,30.07,East,90,1.0,3.0,74,0.00,,,-99.99,0,WeatherLink 5.7,2013-02-06 06:00:00,
2013-02-05 23:10:00,25.1,18.3,30.07,East,90,0.0,3.0,75,0.00,,,-99.99,0,WeatherLink 5.7,2013-02-06 06:10:00,
2013-02-05 23:20:00,24.8,18.0,30.04,East,90,1.0,3.0,75,0.00,,,-99.99,0,WeatherLink 5.7,2013-02-06 06:20:00,
2013-02-05 23:25:00,24.5,17.7,30.04,East,90,1.0,2.0,75,0.00,,,-99.99,0,WeatherLink 5.7,2013-02-06 06:25:00,
2013-02-05 23:35:00,24.2,17.7,30.04,East,90,1.0,2.0,76,0.00,,,-99.99,0,WeatherLink 5.7,2013-02-06 06:35:00,
2013-02-05 23:40:00,24.1,17.6,30.04,East,90,1.0,3.0,76,0.00,,,-99.99,0,WeatherLink 5.7,2013-02-06 06:40:00,
2013-02-05 23:50:00,23.9,17.4,30.05,East,90,1.0,3.0,76,0.00,,,-99.99,0,WeatherLink 5.7,2013-02-06 06:50:00,
2013-02-05 23:55:00,23.9,17.4,30.05,East,90,0.0,2.0,76,0.00,,,-99.99,0,WeatherLink 5.7,2013-02-06 06:55:00,